Saint Bonnet de Bellac- Haute Vienne - France
Donnes mto: vendredi, 02/03/2012
Date Horaire Temp. E. Hum. E. P.atmo. Pluie Vent Direction Direction Ensoleilleme Solaire P. de rose Temp au vent Rafales
02/03/2012 00:00 7,3 C 91 % 1023,8 hPa 0,0 mm 0,0 km/h (0 Bft) NE 45 0 min 0 W/m 5,9 C 7,3 C 0,0 km/h (0 Bft)
02/03/2012 00:10 7,3 C 91 % 1023,7 hPa 0,0 mm 0,0 km/h (0 Bft) NE 45 0 min 0 W/m 5,9 C 7,3 C 0,0 km/h (0 Bft)
02/03/2012 00:20 7,3 C 92 % 1023,8 hPa 0,0 mm 0,0 km/h (0 Bft) NE 45 0 min 0 W/m 6,1 C 7,3 C 0,0 km/h (0 Bft)
02/03/2012 00:30 7,2 C 92 % 1023,8 hPa 0,0 mm 0,0 km/h (0 Bft) NE 45 0 min 0 W/m 6,0 C 7,2 C 0,0 km/h (0 Bft)
02/03/2012 00:40 7,2 C 92 % 1023,9 hPa 0,0 mm 0,4 km/h (0 Bft) NE 45 0 min 0 W/m 6,0 C 7,2 C 3,2 km/h (1 Bft)
02/03/2012 00:50 7,1 C 92 % 1024,0 hPa 0,0 mm 0,0 km/h (0 Bft) E-NE 67 0 min 0 W/m 5,9 C 7,1 C 0,0 km/h (0 Bft)
02/03/2012 01:00 7,1 C 92 % 1023,9 hPa 0,0 mm 0,7 km/h (0 Bft) E-NE 67 0 min 0 W/m 5,9 C 7,1 C 3,6 km/h (1 Bft)
02/03/2012 01:10 6,9 C 92 % 1023,9 hPa 0,0 mm 2,2 km/h (1 Bft) N-NE 22 0 min 0 W/m 5,7 C 6,9 C 2,9 km/h (1 Bft)
02/03/2012 01:20 6,8 C 92 % 1023,8 hPa 0,0 mm 3,6 km/h (1 Bft) NE 45 0 min 0 W/m 5,6 C 6,8 C 7,2 km/h (2 Bft)
02/03/2012 01:30 6,8 C 92 % 1023,8 hPa 0,0 mm 3,6 km/h (1 Bft) NE 45 0 min 0 W/m 5,6 C 6,8 C 6,8 km/h (2 Bft)
02/03/2012 01:40 6,6 C 92 % 1023,7 hPa 0,0 mm 1,1 km/h (1 Bft) E-NE 67 0 min 0 W/m 5,4 C 6,6 C 3,6 km/h (1 Bft)
02/03/2012 01:50 6,5 C 92 % 1023,6 hPa 0,0 mm 0,0 km/h (0 Bft) E-NE 67 0 min 0 W/m 5,3 C 6,5 C 0,0 km/h (0 Bft)
02/03/2012 02:02 6,4 C 92 % 1023,6 hPa 0,0 mm 0,0 km/h (0 Bft) E-NE 67 0 min 0 W/m 5,2 C 6,4 C 0,0 km/h (0 Bft)
02/03/2012 02:10 6,4 C 92 % 1023,5 hPa 0,0 mm 0,0 km/h (0 Bft) N-NE 22 0 min 0 W/m 5,2 C 6,4 C 0,0 km/h (0 Bft)
02/03/2012 02:20 6,4 C 92 % 1023,6 hPa 0,0 mm 0,4 km/h (0 Bft) E-NE 67 0 min 0 W/m 5,2 C 6,4 C 0,4 km/h (0 Bft)
02/03/2012 02:30 6,3 C 92 % 1023,5 hPa 0,0 mm 0,4 km/h (0 Bft) E-NE 67 0 min 0 W/m 5,1 C 6,3 C 4,0 km/h (1 Bft)
02/03/2012 02:40 6,2 C 92 % 1023,4 hPa 0,0 mm 0,4 km/h (0 Bft) E-NE 67 0 min 0 W/m 5,0 C 6,2 C 3,6 km/h (1 Bft)
02/03/2012 02:50 6,1 C 92 % 1023,3 hPa 0,0 mm 0,7 km/h (0 Bft) N-NE 22 0 min 0 W/m 4,9 C 6,1 C 3,6 km/h (1 Bft)
02/03/2012 03:00 6,1 C 92 % 1023,3 hPa 0,0 mm 0,0 km/h (0 Bft) N-NE 22 0 min 0 W/m 4,9 C 6,1 C 0,0 km/h (0 Bft)
02/03/2012 03:10 6,1 C 92 % 1023,3 hPa 0,0 mm 0,0 km/h (0 Bft) NE 45 0 min 0 W/m 4,9 C 6,1 C 0,0 km/h (0 Bft)
02/03/2012 03:20 6,0 C 92 % 1023,2 hPa 0,0 mm 0,0 km/h (0 Bft) NE 45 0 min 0 W/m 4,8 C 6,0 C 0,0 km/h (0 Bft)
02/03/2012 03:30 5,9 C 92 % 1023,1 hPa 0,0 mm 0,0 km/h (0 Bft) NE 45 0 min 0 W/m 4,7 C 5,9 C 0,0 km/h (0 Bft)
02/03/2012 03:40 5,8 C 92 % 1023,1 hPa 0,0 mm 0,0 km/h (0 Bft) N-NE 22 0 min 0 W/m 4,6 C 5,8 C 0,0 km/h (0 Bft)
02/03/2012 03:50 5,8 C 92 % 1023,1 hPa 0,0 mm 0,0 km/h (0 Bft) N-NE 22 0 min 0 W/m 4,6 C 5,8 C 0,0 km/h (0 Bft)
02/03/2012 04:00 5,8 C 92 % 1023,1 hPa 0,0 mm 1,1 km/h (1 Bft) E-NE 67 0 min 0 W/m 4,6 C 5,8 C 4,0 km/h (1 Bft)
02/03/2012 04:10 5,7 C 92 % 1023,0 hPa 0,0 mm 0,0 km/h (0 Bft) NE 45 0 min 0 W/m 4,5 C 5,7 C 0,0 km/h (0 Bft)
02/03/2012 04:20 5,6 C 92 % 1022,9 hPa 0,0 mm 0,0 km/h (0 Bft) N-NE 22 0 min 0 W/m 4,4 C 5,6 C 0,0 km/h (0 Bft)
02/03/2012 04:30 5,6 C 92 % 1022,9 hPa 0,0 mm 0,0 km/h (0 Bft) N-NE 22 0 min 0 W/m 4,4 C 5,6 C 0,0 km/h (0 Bft)
02/03/2012 04:40 5,6 C 93 % 1022,9 hPa 0,0 mm 0,0 km/h (0 Bft) N-NE 22 0 min 0 W/m 4,6 C 5,6 C 0,0 km/h (0 Bft)
02/03/2012 04:50 5,5 C 93 % 1023,0 hPa 0,0 mm 0,0 km/h (0 Bft) N-NE 22 0 min 0 W/m 4,5 C 5,5 C 3,2 km/h (1 Bft)
02/03/2012 05:00 5,4 C 93 % 1022,9 hPa 0,0 mm 0,0 km/h (0 Bft) N-NE 22 0 min 0 W/m 4,4 C 5,4 C 0,0 km/h (0 Bft)
02/03/2012 05:10 5,4 C 93 % 1022,9 hPa 0,0 mm 0,0 km/h (0 Bft) N-NE 22 0 min 0 W/m 4,4 C 5,4 C 0,0 km/h (0 Bft)
02/03/2012 05:20 5,4 C 93 % 1022,8 hPa 0,0 mm 0,4 km/h (0 Bft) N-NE 22 0 min 0 W/m 4,4 C 5,4 C 0,4 km/h (0 Bft)
02/03/2012 05:30 5,3 C 93 % 1022,8 hPa 0,0 mm 0,0 km/h (0 Bft) N-NE 22 0 min 0 W/m 4,3 C 5,3 C 0,0 km/h (0 Bft)
02/03/2012 05:40 5,3 C 93 % 1022,9 hPa 0,0 mm 0,0 km/h (0 Bft) NE 45 0 min 0 W/m 4,3 C 5,3 C 0,0 km/h (0 Bft)
02/03/2012 05:50 5,2 C 93 % 1022,9 hPa 0,0 mm 0,4 km/h (0 Bft) NE 45 0 min 0 W/m 4,2 C 5,2 C 0,4 km/h (0 Bft)
02/03/2012 06:00 5,2 C 93 % 1022,9 hPa 0,0 mm 0,0 km/h (0 Bft) E 90 0 min 0 W/m 4,2 C 5,2 C 0,0 km/h (0 Bft)
02/03/2012 06:10 5,1 C 93 % 1022,9 hPa 0,0 mm 1,4 km/h (1 Bft) N-NE 22 0 min 0 W/m 4,1 C 5,1 C 1,4 km/h (1 Bft)
02/03/2012 06:20 5,1 C 93 % 1022,9 hPa 0,0 mm 0,0 km/h (0 Bft) E-NE 67 0 min 0 W/m 4,1 C 5,1 C 0,0 km/h (0 Bft)
02/03/2012 06:30 4,9 C 93 % 1022,9 hPa 0,0 mm 0,0 km/h (0 Bft) E-NE 67 0 min 0 W/m 3,9 C 4,9 C 0,0 km/h (0 Bft)
02/03/2012 06:40 4,9 C 93 % 1022,9 hPa 0,0 mm 0,0 km/h (0 Bft) E-NE 67 0 min 0 W/m 3,9 C 4,9 C 0,0 km/h (0 Bft)
02/03/2012 06:50 4,9 C 93 % 1022,9 hPa 0,0 mm 0,0 km/h (0 Bft) E 90 0 min 0 W/m 3,9 C 4,9 C 0,0 km/h (0 Bft)
02/03/2012 07:00 4,8 C 93 % 1022,9 hPa 0,0 mm 0,0 km/h (0 Bft) E 90 0 min 0 W/m 3,8 C 4,8 C 0,0 km/h (0 Bft)
02/03/2012 07:10 4,8 C 93 % 1022,9 hPa 0,0 mm 0,0 km/h (0 Bft) E 90 0 min 0 W/m 3,8 C 4,8 C 0,0 km/h (0 Bft)
02/03/2012 07:20 4,8 C 93 % 1022,9 hPa 0,0 mm 0,0 km/h (0 Bft) E 90 0 min 0 W/m 3,8 C 4,8 C 0,0 km/h (0 Bft)
02/03/2012 07:30 4,6 C 92 % 1022,9 hPa 0,0 mm 2,5 km/h (1 Bft) E-NE 67 0 min 0 W/m 3,4 C 4,6 C 4,3 km/h (1 Bft)
02/03/2012 07:40 4,5 C 92 % 1022,9 hPa 0,0 mm 1,1 km/h (1 Bft) E-NE 67 0 min 0 W/m 3,3 C 4,5 C 2,9 km/h (1 Bft)
02/03/2012 07:50 4,3 C 92 % 1023,0 hPa 0,0 mm 0,0 km/h (0 Bft) E-NE 67 2 min 0 W/m 3,1 C 4,3 C 2,9 km/h (1 Bft)
02/03/2012 08:00 4,2 C 92 % 1023,0 hPa 0,0 mm 0,0 km/h (0 Bft) E 90 2 min 0 W/m 3,0 C 4,2 C 0,0 km/h (0 Bft)
02/03/2012 08:10 4,0 C 92 % 1023,0 hPa 0,0 mm 0,7 km/h (0 Bft) E 90 2 min 0 W/m 2,8 C 4,0 C 0,7 km/h (0 Bft)
02/03/2012 08:20 3,9 C 92 % 1023,1 hPa 0,0 mm 0,0 km/h (0 Bft) E-NE 67 2 min 0 W/m 2,7 C 3,9 C 0,0 km/h (0 Bft)
02/03/2012 08:30 3,9 C 93 % 1023,1 hPa 0,0 mm 0,7 km/h (0 Bft) E-SE 112 2 min 0 W/m 2,9 C 3,9 C 3,2 km/h (1 Bft)
02/03/2012 08:40 3,8 C 93 % 1023,1 hPa 0,0 mm 0,0 km/h (0 Bft) E-SE 112 2 min 0 W/m 2,8 C 3,8 C 0,0 km/h (0 Bft)
02/03/2012 08:50 3,8 C 93 % 1023,0 hPa 0,0 mm 0,0 km/h (0 Bft) E 90 2 min 0 W/m 2,8 C 3,8 C 0,0 km/h (0 Bft)
02/03/2012 09:00 3,8 C 93 % 1023,0 hPa 0,0 mm 0,0 km/h (0 Bft) NE 45 2 min 0 W/m 2,8 C 3,8 C 0,0 km/h (0 Bft)
02/03/2012 09:10 3,8 C 93 % 1023,1 hPa 0,0 mm 0,0 km/h (0 Bft) NE 45 2 min 0 W/m 2,8 C 3,8 C 0,0 km/h (0 Bft)
02/03/2012 09:20 3,9 C 93 % 1023,1 hPa 0,0 mm 2,9 km/h (1 Bft) E-NE 67 2 min 0 W/m 2,9 C 3,9 C 4,3 km/h (1 Bft)
02/03/2012 09:30 4,0 C 93 % 1023,0 hPa 0,0 mm 0,4 km/h (0 Bft) E-NE 67 2 min 0 W/m 3,0 C 4,0 C 3,2 km/h (1 Bft)
02/03/2012 09:40 4,1 C 93 % 1022,9 hPa 0,0 mm 0,0 km/h (0 Bft) E-NE 67 2 min 0 W/m 3,1 C 4,1 C 0,0 km/h (0 Bft)
02/03/2012 09:50 4,2 C 93 % 1023,0 hPa 0,0 mm 1,1 km/h (1 Bft) E-NE 67 2 min 0 W/m 3,2 C 4,2 C 1,1 km/h (1 Bft)
02/03/2012 10:00 4,3 C 93 % 1022,9 hPa 0,0 mm 0,0 km/h (0 Bft) E-NE 67 2 min 0 W/m 3,3 C 4,3 C 0,0 km/h (0 Bft)
02/03/2012 10:10 4,4 C 93 % 1023,1 hPa 0,0 mm 0,0 km/h (0 Bft) E-SE 112 2 min 0 W/m 3,4 C 4,4 C 0,0 km/h (0 Bft)
02/03/2012 10:20 4,6 C 93 % 1023,2 hPa 0,0 mm 0,0 km/h (0 Bft) E 90 2 min 0 W/m 3,6 C 4,6 C 0,0 km/h (0 Bft)
02/03/2012 10:30 4,9 C 94 % 1023,3 hPa 0,0 mm 0,0 km/h (0 Bft) E-SE 112 2 min 0 W/m 4,0 C 4,9 C 0,0 km/h (0 Bft)
02/03/2012 10:40 5,3 C 94 % 1023,3 hPa 0,0 mm 0,0 km/h (0 Bft) NE 45 2 min 0 W/m 4,4 C 5,3 C 0,0 km/h (0 Bft)
02/03/2012 10:50 5,9 C 94 % 1023,2 hPa 0,0 mm 0,0 km/h (0 Bft) E-NE 67 2 min 0 W/m 5,0 C 5,9 C 0,0 km/h (0 Bft)
02/03/2012 11:00 6,8 C 94 % 1023,2 hPa 0,0 mm 0,0 km/h (0 Bft) E-NE 67 2 min 0 W/m 5,9 C 6,8 C 0,0 km/h (0 Bft)
02/03/2012 11:10 7,5 C 94 % 1023,2 hPa 0,0 mm 0,0 km/h (0 Bft) E-NE 67 2 min 0 W/m 6,6 C 7,5 C 0,0 km/h (0 Bft)
02/03/2012 11:20 8,5 C 94 % 1023,3 hPa 0,0 mm 0,4 km/h (0 Bft) E-NE 67 2 min 0 W/m 7,6 C 8,5 C 1,4 km/h (1 Bft)
02/03/2012 11:30 9,2 C 91 % 1023,2 hPa 0,0 mm 0,0 km/h (0 Bft) N-NO 337 2 min 0 W/m 7,8 C 9,2 C 0,0 km/h (0 Bft)
02/03/2012 11:40 10,4 C 89 % 1023,3 hPa 0,0 mm 0,7 km/h (0 Bft) NO 315 2 min 0 W/m 8,7 C 10,4 C 3,6 km/h (1 Bft)
02/03/2012 11:50 11,1 C 87 % 1023,2 hPa 0,0 mm 2,9 km/h (1 Bft) NO 315 2 min 0 W/m 9,0 C 11,1 C 7,2 km/h (2 Bft)
02/03/2012 12:00 11,4 C 86 % 1023,2 hPa 0,0 mm 2,9 km/h (1 Bft) NO 315 2 min 0 W/m 9,1 C 11,4 C 4,0 km/h (1 Bft)
02/03/2012 12:10 12,2 C 85 % 1023,4 hPa 0,0 mm 1,4 km/h (1 Bft) NE 45 2 min 0 W/m 9,8 C 12,2 C 3,6 km/h (1 Bft)
02/03/2012 12:20 12,8 C 82 % 1023,2 hPa 0,0 mm 0,7 km/h (0 Bft) N-NE 22 2 min 0 W/m 9,8 C 12,8 C 4,0 km/h (1 Bft)
02/03/2012 12:30 13,4 C 81 % 1023,1 hPa 0,0 mm 2,5 km/h (1 Bft) NE 45 2 min 0 W/m 10,2 C 13,4 C 4,0 km/h (1 Bft)
02/03/2012 12:40 13,9 C 79 % 1023,2 hPa 0,0 mm 1,4 km/h (1 Bft) N-NE 22 2 min 0 W/m 10,3 C 13,9 C 4,0 km/h (1 Bft)
02/03/2012 12:50 14,3 C 77 % 1023,1 hPa 0,0 mm 3,6 km/h (1 Bft) N-NE 22 2 min 0 W/m 10,3 C 14,3 C 4,0 km/h (1 Bft)
02/03/2012 13:00 14,6 C 76 % 1023,0 hPa 0,0 mm 1,8 km/h (1 Bft) N-NE 22 2 min 0 W/m 10,4 C 14,6 C 4,0 km/h (1 Bft)
02/03/2012 13:10 15,1 C 75 % 1022,8 hPa 0,0 mm 2,9 km/h (1 Bft) NE 45 2 min 0 W/m 10,7 C 15,1 C 2,9 km/h (1 Bft)
02/03/2012 13:20 15,4 C 74 % 1022,9 hPa 0,0 mm 1,1 km/h (1 Bft) NE 45 2 min 0 W/m 10,8 C 15,4 C 3,6 km/h (1 Bft)
02/03/2012 13:30 15,4 C 74 % 1022,8 hPa 0,0 mm 3,2 km/h (1 Bft) N-NE 22 2 min 0 W/m 10,8 C 15,4 C 3,2 km/h (1 Bft)
02/03/2012 13:40 15,4 C 74 % 1022,4 hPa 0,0 mm 1,1 km/h (1 Bft) N-NE 22 2 min 0 W/m 10,8 C 15,4 C 4,0 km/h (1 Bft)
02/03/2012 13:50 15,6 C 74 % 1022,3 hPa 0,0 mm 5,0 km/h (1 Bft) N-NE 22 2 min 0 W/m 11,0 C 15,6 C 7,9 km/h (2 Bft)
02/03/2012 14:00 15,8 C 73 % 1022,1 hPa 0,0 mm 4,0 km/h (1 Bft) N 360 2 min 0 W/m 11,0 C 15,8 C 4,0 km/h (1 Bft)
02/03/2012 14:10 16,2 C 72 % 1022,0 hPa 0,0 mm 2,2 km/h (1 Bft) N-NE 22 2 min 0 W/m 11,1 C 16,2 C 4,3 km/h (1 Bft)
02/03/2012 14:20 16,5 C 71 % 1021,9 hPa 0,0 mm 0,0 km/h (0 Bft) N-NO 337 2 min 0 W/m 11,2 C 16,5 C 0,0 km/h (0 Bft)
02/03/2012 14:30 16,7 C 70 % 1021,6 hPa 0,0 mm 0,4 km/h (0 Bft) N-NO 337 2 min 0 W/m 11,2 C 16,7 C 3,2 km/h (1 Bft)
02/03/2012 14:40 16,9 C 70 % 1021,4 hPa 0,0 mm 2,9 km/h (1 Bft) N-NE 22 2 min 0 W/m 11,4 C 16,9 C 7,2 km/h (2 Bft)
02/03/2012 14:50 16,9 C 69 % 1021,2 hPa 0,0 mm 1,4 km/h (1 Bft) N 360 2 min 0 W/m 11,2 C 16,9 C 6,5 km/h (2 Bft)
02/03/2012 15:00 16,8 C 69 % 1021,2 hPa 0,0 mm 3,6 km/h (1 Bft) N 360 2 min 0 W/m 11,1 C 16,8 C 7,6 km/h (2 Bft)
02/03/2012 15:10 16,5 C 69 % 1021,1 hPa 0,0 mm 1,8 km/h (1 Bft) N-NE 22 2 min 0 W/m 10,8 C 16,5 C 5,0 km/h (1 Bft)
02/03/2012 15:20 16,3 C 69 % 1021,0 hPa 0,0 mm 4,7 km/h (1 Bft) N-NE 22 2 min 0 W/m 10,6 C 16,3 C 7,2 km/h (2 Bft)
02/03/2012 15:30 16,0 C 70 % 1021,0 hPa 0,0 mm 4,7 km/h (1 Bft) N 360 2 min 0 W/m 10,5 C 16,0 C 4,7 km/h (1 Bft)
02/03/2012 15:40 15,8 C 71 % 1020,9 hPa 0,0 mm 8,3 km/h (2 Bft) N-NE 22 2 min 0 W/m 10,6 C 15,8 C 12,2 km/h (2 Bft)
02/03/2012 15:50 15,6 C 72 % 1020,8 hPa 0,0 mm 3,2 km/h (1 Bft) N-NE 22 2 min 0 W/m 10,6 C 15,6 C 4,0 km/h (1 Bft)
02/03/2012 16:00 15,5 C 72 % 1020,9 hPa 0,0 mm 1,1 km/h (1 Bft) N-NO 337 2 min 0 W/m 10,5 C 15,5 C 4,3 km/h (1 Bft)
02/03/2012 16:10 15,4 C 73 % 1020,8 hPa 0,0 mm 3,6 km/h (1 Bft) N 360 2 min 0 W/m 10,6 C 15,4 C 6,1 km/h (2 Bft)
02/03/2012 16:20 15,3 C 73 % 1020,8 hPa 0,0 mm 1,4 km/h (1 Bft) N-NO 337 2 min 0 W/m 10,5 C 15,3 C 6,5 km/h (2 Bft)
02/03/2012 16:30 15,0 C 73 % 1020,9 hPa 0,0 mm 0,0 km/h (0 Bft) N 360 2 min 0 W/m 10,2 C 15,0 C 0,0 km/h (0 Bft)
02/03/2012 16:40 14,8 C 73 % 1020,8 hPa 0,0 mm 1,8 km/h (1 Bft) N-NE 22 2 min 0 W/m 10,0 C 14,8 C 1,8 km/h (1 Bft)
02/03/2012 16:50 14,6 C 73 % 1020,9 hPa 0,0 mm 2,5 km/h (1 Bft) N 360 2 min 0 W/m 9,8 C 14,6 C 6,5 km/h (2 Bft)
02/03/2012 17:00 14,3 C 74 % 1020,7 hPa 0,0 mm 5,0 km/h (1 Bft) N 360 2 min 0 W/m 9,7 C 14,3 C 5,0 km/h (1 Bft)
02/03/2012 17:10 14,1 C 75 % 1020,8 hPa 0,0 mm 0,7 km/h (0 Bft) NE 45 2 min 0 W/m 9,7 C 14,1 C 4,0 km/h (1 Bft)
02/03/2012 17:20 13,9 C 75 % 1020,7 hPa 0,0 mm 0,0 km/h (0 Bft) N-NO 337 2 min 0 W/m 9,5 C 13,9 C 0,0 km/h (0 Bft)
02/03/2012 17:30 13,6 C 75 % 1020,8 hPa 0,0 mm 2,5 km/h (1 Bft) N-NE 22 2 min 0 W/m 9,3 C 13,6 C 4,3 km/h (1 Bft)
02/03/2012 17:40 13,3 C 76 % 1020,8 hPa 0,0 mm 0,0 km/h (0 Bft) N-NO 337 2 min 0 W/m 9,2 C 13,3 C 3,2 km/h (1 Bft)
02/03/2012 17:50 12,9 C 76 % 1020,9 hPa 0,0 mm 1,8 km/h (1 Bft) N-NO 337 2 min 0 W/m 8,8 C 12,9 C 4,3 km/h (1 Bft)
02/03/2012 18:00 12,8 C 76 % 1020,8 hPa 0,0 mm 0,0 km/h (0 Bft) N-NO 337 2 min 0 W/m 8,7 C 12,8 C 0,0 km/h (0 Bft)
02/03/2012 18:10 12,5 C 77 % 1020,7 hPa 0,0 mm 1,1 km/h (1 Bft) N 360 2 min 0 W/m 8,6 C 12,5 C 4,0 km/h (1 Bft)
02/03/2012 18:20 11,9 C 78 % 1020,7 hPa 0,0 mm 2,2 km/h (1 Bft) N-NE 22 2 min 0 W/m 8,2 C 11,9 C 7,2 km/h (2 Bft)
02/03/2012 18:30 11,4 C 79 % 1020,8 hPa 0,0 mm 0,4 km/h (0 Bft) N-NE 22 2 min 0 W/m 7,9 C 11,4 C 0,4 km/h (0 Bft)
02/03/2012 18:40 10,8 C 79 % 1020,9 hPa 0,0 mm 0,0 km/h (0 Bft) NE 45 0 min 0 W/m 7,3 C 10,8 C 3,2 km/h (1 Bft)
02/03/2012 18:50 10,2 C 80 % 1020,9 hPa 0,0 mm 2,2 km/h (1 Bft) N-NE 22 0 min 0 W/m 6,9 C 10,2 C 4,3 km/h (1 Bft)
02/03/2012 19:00 9,8 C 82 % 1020,8 hPa 0,0 mm 2,2 km/h (1 Bft) NE 45 0 min 0 W/m 6,9 C 9,8 C 3,6 km/h (1 Bft)
02/03/2012 19:10 9,3 C 82 % 1020,8 hPa 0,0 mm 0,7 km/h (0 Bft) NE 45 0 min 0 W/m 6,4 C 9,3 C 3,2 km/h (1 Bft)
02/03/2012 19:20 8,9 C 83 % 1021,0 hPa 0,0 mm 1,1 km/h (1 Bft) N-NE 22 0 min 0 W/m 6,2 C 8,9 C 2,9 km/h (1 Bft)
02/03/2012 19:30 8,6 C 84 % 1021,1 hPa 0,0 mm 0,0 km/h (0 Bft) N-NE 22 0 min 0 W/m 6,1 C 8,6 C 3,2 km/h (1 Bft)
02/03/2012 19:40 8,3 C 85 % 1021,0 hPa 0,0 mm 0,4 km/h (0 Bft) N-NE 22 0 min 0 W/m 5,9 C 8,3 C 0,4 km/h (0 Bft)
02/03/2012 19:50 8,0 C 85 % 1020,9 hPa 0,0 mm 0,4 km/h (0 Bft) N-NE 22 0 min 0 W/m 5,6 C 8,0 C 0,4 km/h (0 Bft)
02/03/2012 20:00 7,8 C 85 % 1021,0 hPa 0,0 mm 0,4 km/h (0 Bft) N-NE 22 0 min 0 W/m 5,4 C 7,8 C 4,3 km/h (1 Bft)
02/03/2012 20:10 7,4 C 86 % 1020,9 hPa 0,0 mm 1,4 km/h (1 Bft) N-NE 22 0 min 0 W/m 5,2 C 7,4 C 4,3 km/h (1 Bft)
02/03/2012 20:20 7,0 C 87 % 1021,1 hPa 0,0 mm 2,2 km/h (1 Bft) N-NE 22 0 min 0 W/m 5,0 C 7,0 C 3,6 km/h (1 Bft)
02/03/2012 20:30 6,8 C 87 % 1021,2 hPa 0,0 mm 0,0 km/h (0 Bft) N-NE 22 0 min 0 W/m 4,8 C 6,8 C 0,0 km/h (0 Bft)
02/03/2012 20:40 6,6 C 88 % 1021,4 hPa 0,0 mm 0,0 km/h (0 Bft) N-NE 22 0 min 0 W/m 4,8 C 6,6 C 0,0 km/h (0 Bft)
02/03/2012 20:50 6,5 C 88 % 1021,3 hPa 0,0 mm 0,0 km/h (0 Bft) N-NE 22 0 min 0 W/m 4,7 C 6,5 C 0,0 km/h (0 Bft)
02/03/2012 21:00 6,5 C 88 % 1021,3 hPa 0,0 mm 0,0 km/h (0 Bft) N-NE 22 0 min 0 W/m 4,7 C 6,5 C 0,0 km/h (0 Bft)
02/03/2012 21:10 6,4 C 89 % 1021,5 hPa 0,0 mm 0,0 km/h (0 Bft) N-NE 22 0 min 0 W/m 4,7 C 6,4 C 0,0 km/h (0 Bft)
02/03/2012 21:20 6,4 C 89 % 1021,5 hPa 0,0 mm 0,0 km/h (0 Bft) N-NE 22 0 min 0 W/m 4,7 C 6,4 C 0,0 km/h (0 Bft)
02/03/2012 21:30 6,3 C 89 % 1021,5 hPa 0,0 mm 0,0 km/h (0 Bft) N-NE 22 0 min 0 W/m 4,6 C 6,3 C 0,0 km/h (0 Bft)
02/03/2012 21:40 6,1 C 89 % 1021,4 hPa 0,0 mm 0,0 km/h (0 Bft) N-NE 22 0 min 0 W/m 4,4 C 6,1 C 0,0 km/h (0 Bft)
02/03/2012 21:50 5,8 C 89 % 1021,5 hPa 0,0 mm 0,0 km/h (0 Bft) N-NE 22 0 min 0 W/m 4,1 C 5,8 C 0,0 km/h (0 Bft)
02/03/2012 22:00 5,6 C 89 % 1021,5 hPa 0,0 mm 0,0 km/h (0 Bft) N-NE 22 0 min 0 W/m 3,9 C 5,6 C 0,0 km/h (0 Bft)
02/03/2012 22:10 5,3 C 89 % 1021,5 hPa 0,0 mm 0,0 km/h (0 Bft) N-NE 22 0 min 0 W/m 3,6 C 5,3 C 0,0 km/h (0 Bft)
02/03/2012 22:20 5,1 C 90 % 1021,5 hPa 0,0 mm 0,0 km/h (0 Bft) N-NE 22 0 min 0 W/m 3,6 C 5,1 C 0,0 km/h (0 Bft)
02/03/2012 22:30 4,9 C 90 % 1021,4 hPa 0,0 mm 0,0 km/h (0 Bft) N-NE 22 0 min 0 W/m 3,4 C 4,9 C 0,0 km/h (0 Bft)
02/03/2012 22:40 4,7 C 90 % 1021,3 hPa 0,0 mm 0,0 km/h (0 Bft) E-NE 67 0 min 0 W/m 3,2 C 4,7 C 0,0 km/h (0 Bft)
02/03/2012 22:50 4,5 C 90 % 1021,5 hPa 0,0 mm 0,0 km/h (0 Bft) E-NE 67 0 min 0 W/m 3,0 C 4,5 C 0,0 km/h (0 Bft)
02/03/2012 23:00 4,3 C 90 % 1021,4 hPa 0,0 mm 0,0 km/h (0 Bft) E-NE 67 0 min 0 W/m 2,8 C 4,3 C 0,0 km/h (0 Bft)
02/03/2012 23:10 4,2 C 90 % 1021,4 hPa 0,0 mm 0,0 km/h (0 Bft) E-NE 67 0 min 0 W/m 2,7 C 4,2 C 0,0 km/h (0 Bft)
02/03/2012 23:20 4,1 C 90 % 1021,4 hPa 0,0 mm 0,0 km/h (0 Bft) E-NE 67 0 min 0 W/m 2,6 C 4,1 C 0,0 km/h (0 Bft)
_ Min-Heure 09:10 15:20 18:20 - 23:20 - - - - 23:20 09:10 23:20
Minimum _ 3,8 C 69 % 1020,7 hPa - 0,0 km/h (0 Bft) - - - - 2,6 C 3,8 C 0,0 km/h (0 Bft)
_ Max-Heure 14:50 11:20 00:50 23:20 15:40 - - 18:30 23:20 14:40 14:50 15:40
Maximum _ 16,9 C 94 % 1024,0 hPa 0,0 mm 8,3 km/h
N-NE (2 Bft)
- - 2 min 0 W/m 11,4 C 16,9 C 12,2 km/h
N-NE (2 Bft)
Moyenne _ 8,5 C 86 % 1022,3 hPa #0,0 mm 0,9 km/h (0 Bft) N-NE - #2:10 h 0 W/m 6,2 C 8,5 C 2,1 km/h (1 Bft)
Saint Bonnet de Bellac- Haute Vienne - France